Date String (YYYY-MM-DD hh:mm:ss) UTC,Instrument flags,absolute air pressure of the measurement (hPa),sample flow rate (lpm),inlet stack bypass flow (lpm),air temperature of the measurement (°C),ambient temperature measured by the external sensor (°C),aerosol sample conditioner tube jacket temperature (°C),OPC LED temperature (°C),internal box temperature (°C),relative humidity of the measurement (%),span deviation,mass concentration of particles derived from Lorenz-Mie calculation of OPC scattering (μg/m³),mass concentration of particles derived from Lorenz-Mie calculation of OPC scattering (μg/m³),mass concentration of particles derived from Lorenz-Mie calculation of OPC scattering (μg/m³)
DateTimeUTC,F1_M11,P_M11,Q1_M11,Q2_M11,T1_M11,T2_M11,T3_M11,T4_M11,T5_M11,U1_M11,ZSPAN_M11,X0_M11,X2_M11,X1_M11
2023-11-17 14:00:00,SystemResetWarning,0830.6,5.00,000.00,025.9,024.9,000.0,034.3,027.3,20.9,0000.6,0015.08,0008.93,0008.19
2023-11-17 14:01:00,SystemResetWarning,0830.4,5.00,000.00,025.9,024.8,000.0,034.3,027.3,20.9,0001.0,0014.91,0008.93,0008.20
2023-11-17 14:02:00,SystemResetWarning,0830.2,4.99,000.00,025.9,024.9,000.0,034.3,027.3,20.9,0001.1,0015.08,0008.95,0008.24
2023-11-17 14:03:00,SystemResetWarning,0830.2,5.00,000.00,025.9,024.9,000.0,034.3,027.2,20.9,0001.5,0014.54,0008.98,0008.30
2023-11-17 14:04:00,SystemResetWarning,0830.2,5.00,000.00,025.9,024.9,000.0,034.3,027.3,20.9,0000.3,0014.38,0009.01,0008.36
2023-11-17 14:05:00,SystemResetWarning,0830.3,5.00,000.00,025.9,024.9,000.0,034.3,027.3,20.9,0000.6,0014.61,0009.09,0008.42
2023-11-17 14:06:00,SystemResetWarning,0830.3,5.01,000.00,025.9,024.9,000.0,034.3,027.3,21.0,0000.0,0014.74,0009.15,0008.48
2023-11-17 14:07:00,SystemResetWarning,0830.3,5.00,000.00,025.9,024.9,000.0,034.3,027.3,21.0,0000.0,0014.72,0009.15,0008.48
2023-11-17 14:08:00,SystemResetWarning,0830.2,5.00,000.00,025.9,024.9,000.0,034.3,027.3,21.0,0001.0,0014.44,0009.17,0008.48
2023-11-17 14:09:00,SystemResetWarning,0830.2,5.00,000.00,025.9,024.9,000.0,034.3,027.2,21.0,0001.8,0013.72,0009.15,0008.47
2023-11-17 14:10:00,SystemResetWarning,0830.3,5.00,000.00,025.9,024.9,000.0,034.3,027.3,21.0,0002.4,0013.71,0009.16,0008.45
2023-11-17 14:11:00,SystemResetWarning,0830.3,4.99,000.00,025.9,024.9,000.0,034.3,027.3,21.0,0002.6,0013.85,0009.17,0008.44
2023-11-17 14:12:00,SystemResetWarning,0830.3,5.00,000.00,025.9,024.9,000.0,034.3,027.4,21.0,0002.4,0014.37,0009.17,0008.45
2023-11-17 14:13:00,SystemResetWarning,0830.4,5.00,000.00,025.9,024.9,000.0,034.3,027.4,21.0,0002.7,0013.95,0009.20,0008.48
2023-11-17 14:14:00,SystemResetWarning,0830.4,5.00,000.00,025.9,024.9,000.0,034.3,027.3,21.0,0002.2,0013.90,0009.26,0008.51
2023-11-17 14:15:00,SystemResetWarning,0830.6,5.00,000.00,025.9,024.9,000.0,034.2,027.3,21.1,0001.7,0014.22,0009.25,0008.52
2023-11-17 14:16:00,SystemResetWarning,0830.6,5.00,000.00,025.9,024.9,000.0,034.2,027.3,21.1,0001.0,0014.41,0009.16,0008.47
2023-11-17 14:17:00,SystemResetWarning,0830.4,4.99,000.00,025.9,024.8,000.0,034.2,027.3,21.1,0000.5,0014.80,0009.06,0008.37
2023-11-17 14:18:00,SystemResetWarning,0830.5,5.00,000.00,025.9,024.8,000.0,034.2,027.3,21.2,0001.1,0014.75,0009.00,0008.31
2023-11-17 14:19:00,SystemResetWarning,0830.4,5.00,000.00,025.8,024.8,000.0,034.2,027.3,21.2,0001.6,0014.70,0008.96,0008.27
2023-11-17 14:20:00,SystemResetWarning,0830.4,5.00,000.00,025.8,024.9,000.0,034.2,027.3,21.2,0001.1,0014.80,0008.92,0008.23
2023-11-17 14:21:00,SystemResetWarning,0830.4,5.00,000.00,025.8,024.8,000.0,034.2,027.3,21.2,0000.7,0015.14,0008.90,0008.19
2023-11-17 14:22:00,SystemResetWarning,0830.3,5.01,000.00,025.8,024.8,000.0,034.2,027.3,21.2,-000.0,0014.75,0008.87,0008.17
2023-11-17 14:23:00,SystemResetWarning,0830.4,5.01,000.00,025.8,024.8,000.0,034.2,027.3,21.2,-000.5,0014.25,0008.88,0008.17
2023-11-17 14:24:00,SystemResetWarning,0830.7,5.01,000.00,025.8,024.8,000.0,034.2,027.3,21.2,-000.9,0014.60,0008.90,0008.17
2023-11-17 14:25:00,SystemResetWarning,0830.7,5.00,000.00,025.8,024.8,000.0,034.2,027.2,21.2,-001.1,0014.80,0008.88,0008.14
2023-11-17 14:26:00,SystemResetWarning,0830.6,5.00,000.00,025.8,024.8,000.0,034.2,027.2,21.2,-001.0,0014.68,0008.90,0008.12
2023-11-17 14:27:00,SystemResetWarning,0830.6,5.00,000.00,025.8,024.8,000.0,034.2,027.2,21.2,-000.4,0014.27,0008.94,0008.15
2023-11-17 14:28:00,SystemResetWarning,0830.4,5.00,000.00,025.8,024.7,000.0,034.2,027.2,21.2,0000.2,0013.74,0008.95,0008.19
2023-11-17 14:29:00,SystemResetWarning,0830.3,5.00,000.00,025.7,024.7,000.0,034.2,027.0,21.2,-000.0,0013.74,0008.99,0008.22
2023-11-17 14:30:00,SystemResetWarning,0830.5,5.00,000.00,025.7,024.7,000.0,034.2,026.9,21.3,0000.5,0013.84,0009.04,0008.25
2023-11-17 14:31:00,SystemResetWarning,0830.5,5.00,000.00,025.7,024.6,000.0,034.2,027.0,21.4,0000.6,0013.81,0009.09,0008.28
2023-11-17 14:32:00,SystemResetWarning,0830.4,5.00,000.00,025.6,024.6,000.0,034.1,027.0,21.4,0000.5,0013.53,0009.06,0008.30
2023-11-17 14:33:00,SystemResetWarning,0830.5,5.00,000.00,025.6,024.5,000.0,034.1,026.9,21.5,0000.2,0013.76,0009.07,0008.32
2023-11-17 14:34:00,SystemResetWarning,0830.4,5.00,000.00,025.6,024.5,000.0,034.1,027.0,21.5,0000.0,0013.62,0009.07,0008.32
2023-11-17 14:35:00,SystemResetWarning,0830.5,5.00,000.00,025.6,024.5,000.0,034.1,027.0,21.5,0001.0,0013.30,0009.06,0008.34
2023-11-17 14:36:00,SystemResetWarning,0830.6,5.00,000.00,025.6,024.5,000.0,034.1,027.0,21.6,0000.2,0012.63,0009.05,0008.36
2023-11-17 14:37:00,SystemResetWarning,0830.7,5.00,000.00,025.6,024.5,000.0,034.1,027.0,21.6,0001.8,0012.44,0009.05,0008.38
2023-11-17 14:38:00,SystemResetWarning,0830.6,5.00,000.00,025.6,024.5,000.0,034.1,027.0,21.6,0000.0,0012.54,0009.07,0008.38
2023-11-17 14:39:00,SystemResetWarning,0830.5,5.00,000.00,025.5,024.5,000.0,034.0,026.9,21.7,0000.0,0012.85,0009.14,0008.41
2023-11-17 14:40:00,SystemResetWarning,0830.4,5.00,000.00,025.5,024.5,000.0,034.0,026.9,21.7,0000.0,0013.61,0009.16,0008.44
2023-11-17 14:41:00,SystemResetWarning,0830.5,5.01,000.00,025.5,024.5,000.0,034.0,026.9,21.7,0000.0,0013.66,0009.14,0008.46
2023-11-17 14:42:00,SystemResetWarning,0830.4,5.00,000.00,025.5,024.5,000.0,034.0,027.0,21.8,0000.0,0013.62,0009.15,0008.48
2023-11-17 14:43:00,SystemResetWarning,0830.4,5.00,000.00,025.5,024.5,000.0,034.0,027.0,21.8,0001.2,0013.54,0009.17,0008.50
2023-11-17 14:44:00,SystemResetWarning,0830.4,5.00,000.00,025.5,024.5,000.0,034.0,026.9,21.8,0002.0,0013.34,0009.19,0008.51
2023-11-17 14:45:00,SystemResetWarning,0830.5,5.00,000.00,025.5,024.5,000.0,034.0,026.9,21.9,0002.6,0013.89,0009.25,0008.55
2023-11-17 14:46:00,SystemResetWarning,0830.4,5.00,000.00,025.5,024.4,000.0,034.0,026.9,21.9,0001.4,0014.23,0009.28,0008.56
2023-11-17 14:47:00,SystemResetWarning,0830.4,4.99,000.00,025.4,024.4,000.0,034.0,026.8,21.9,0001.4,0014.20,0009.29,0008.56
2023-11-17 14:48:00,SystemResetWarning,0830.4,5.00,000.00,025.4,024.4,000.0,034.0,026.6,22.0,0002.1,0014.31,0009.26,0008.54
2023-11-17 14:49:00,SystemResetWarning,0830.4,4.99,000.00,025.4,024.4,000.0,033.9,026.6,22.0,0001.7,0014.04,0009.19,0008.52
2023-11-17 14:50:00,SystemResetWarning,0830.4,5.00,000.00,025.4,024.4,000.0,033.9,026.7,22.1,0001.2,0013.69,0009.16,0008.51
2023-11-17 14:51:00,SystemResetWarning,0830.8,5.00,000.00,025.4,024.4,000.0,033.9,026.7,22.1,0001.1,0012.72,0009.12,0008.52
2023-11-17 14:52:00,SystemResetWarning,0830.5,5.01,000.00,025.3,024.3,000.0,033.9,026.8,22.1,0000.5,0012.70,0009.13,0008.54
2023-11-17 14:53:00,SystemResetWarning,0830.5,5.00,000.00,025.3,024.3,000.0,033.9,026.7,22.1,0001.2,0012.84,0009.13,0008.55
2023-11-17 14:54:00,SystemResetWarning,0830.4,5.00,000.00,025.3,024.3,000.0,033.8,026.6,22.2,0000.8,0012.71,0009.09,0008.55
2023-11-17 14:55:00,SystemResetWarning,0830.4,5.01,000.00,025.3,024.3,000.0,033.8,026.7,22.2,0000.2,0012.59,0009.10,0008.58
2023-11-17 14:56:00,SystemResetWarning,0830.5,5.00,000.00,025.3,024.3,000.0,033.8,026.7,22.2,0000.8,0012.04,0009.06,0008.59
2023-11-17 14:57:00,SystemResetWarning,0830.5,5.00,000.00,025.3,024.3,000.0,033.8,026.7,22.3,0000.7,0011.79,0009.03,0008.59
2023-11-17 14:58:00,SystemResetWarning,0830.5,5.00,000.00,025.3,024.3,000.0,033.8,026.7,22.4,0000.3,0011.75,0009.00,0008.60
2023-11-17 14:59:00,SystemResetWarning,0830.4,4.99,000.00,025.3,024.3,000.0,033.8,026.7,22.5,0000.6,0011.61,0009.01,0008.63
